C/2009 F5 ( McNaught )

Japanese version
Home page
Updated on March 17, 2010

---------------------------------------------------------------------

* Profile

Discovery Date March 20, 2009
Magnitude 15.9 mag
Discoverer R. H. McNaught (Siding Spring)

* Pictures

* Orbital Elements

Epoch 2008 Oct. 21.0 TT = JDT 2454760.5
T 2008 Nov. 4.80576 TT                                  MPC
q   2.2451333            (2000.0)            P               Q
z  +0.0125361      Peri.  297.35604     -0.40571390     -0.66428386
 +/-0.0000413      Node   219.06524     +0.14155524     -0.72424230
e   0.9718549      Incl.   84.98490     -0.90297195     +0.18493255

* Finding Charts

* Magnitudes Graph

        m1 = 10.2 + 5 log d + 10.0 log r

---------------------------------------------------------------------

The orbital elements are published on M.P.E.C. 2009-L13.
The charts are made with StellaNavigator Ver.8 (AstroArts).
The magnitudes graphs are made with Comet for Windows.

---------------------------------------------------------------------

Copyright(C) Seiichi Yoshida (comet@aerith.net). All rights reserved.